Regional Weather Roundup
Issued by NWS Shreveport, LA

Home | Current Version | Previous Version | Text Only | Print | Product List | Glossary On
Versions: 1 2 3 4 5 6 7 8 9 10 11 12 13 14 15 16 17 18 19 20 21 22 23 24 25 26 27 28 29 30 31 32 33 34 35 36 37 38 39 40 41 42 43 44 45 46 47 48 49 50
000
ASUS44 KSHV 031310
RWRSHV

THE FOUR STATE AREA WEATHER ROUNDUP
NATIONAL WEATHER SERVICE SHREVEPORT LA
800 AM CDT WED JUN 03 2020

NOTE:  "FAIR" INDICATES FEW OR NO CLOUDS BELOW 12000 FEET
WITH NO SIGNIFICANT WEATHER AND/OR OBSTRUCTIONS TO VISIBILITY.

!LAZ001-LAZ014-TXZ097-031400
SHREVEPORT...MONROE...TEXARKANA RADIOS

CITY           SKY/WX    TMP DP  RH WIND       PRES   REMARKS
SHREVEPORT     CLOUDY    74  69  85 CALM      30.02R
MONROE         CLOUDY    77  71  82 CALM      30.05R
NATCHITOCHES   CLOUDY    74  71  92 CALM      30.03S FOG
TEXARKANA      MOSUNNY   76  67  73 SW8       30.02S
$$

!LAZ001-LAZ014-TXZ097-031400
OTHER LOCATIONS...

CITY           SKY/WX    TMP DP  RH WIND       PRES   REMARKS
DOWNTOWN SHV   CLOUDY    76  69  79 SW5       30.02R
BOSSIER CITY   CLOUDY    75  66  73 CALM      30.02R
RUSTON         CLOUDY    71  68  92 CALM      30.08R
LITTLE ROCK    PTSUNNY   73  68  84 SE3       30.03R
EL DORADO      PTSUNNY   73  70  90 S3        30.03R
JACKSON        CLOUDY    76  73  91 S5        30.06S
NEW ORLEANS    PTSUNNY   83  77  82 CALM      30.03R
HOUSTON        MOSUNNY   77  73  87 SE3       30.00R
LUFKIN         MOSUNNY   76  70  82 CALM      30.02R
TYLER          LGT RAIN  78  70  76 W3        30.02S
DAL FT WORTH   MOSUNNY   77  70  79 SW10      29.99S
$$


!TXZ136-TXZ165-031400
TYLER...LUFKIN RADIOS

CITY           SKY/WX    TMP DP  RH WIND       PRES   REMARKS
TYLER          LGT RAIN  78  70  76 W3        30.02S
GILMER         MOSUNNY   74  69  82 S5        30.03R
LONGVIEW       MOSUNNY   75  67  76 SW3       30.01R
LUFKIN         MOSUNNY   76  70  82 CALM      30.02R
$$

!TXZ136-TXZ165-031400
OTHER LOCATIONS...

CITY           SKY/WX    TMP DP  RH WIND       PRES   REMARKS
NACOGDOCHES    LGT RAIN  72  70  93 CALM      30.04R FOG
BEAUMONT       PTSUNNY   77  77 100 CALM      30.00S
HOUSTON        MOSUNNY   77  73  87 SE3       30.00R
COLLEGE STN    SUNNY     76  71  85 CALM      30.01R
AUSTIN         CLOUDY    74  73  97 S3        30.01R FOG
DAL FT WORTH   MOSUNNY   77  70  79 SW10      29.99S
TEXARKANA      MOSUNNY   76  67  73 SW8       30.02S
SHREVEPORT     CLOUDY    74  69  85 CALM      30.02R
FORT POLK      CLOUDY    75  70  85 CALM      30.01S
LAKE CHARLES   MOSUNNY   76  76 100 E3        30.02R
$$




USA.gov is the U.S. government's official web portal to all federal, state and local government web resources and services.